User: anonymous   Login
Location: Caltech
(34.1382°N, 118.1253°W)
Time: 19:03:18
(UTC-07:00)
Language:

Cosmos 1484 Rocket - Orbit

View from above orbital plane
View from above orbital plane
View from above satellite
View from above satellite

Ground track
Ground track

The orbit data is extracted from the following two-line orbital elements,

1 14208U 83075B   16148.07417622  .00000779  00000-0  51015-4 0  9996
2 14208  97.3557 168.2911 0040592  25.1656 335.1540 15.09926066789230
Epoch (UTC): 27 May 2016 01:46:48
Eccentricity: 0.0040592
inclination: 97.3557°
perigee height: 508 km
apogee height: 564 km
right ascension of ascending node: 168.2911°
argument of perigee: 25.1656°
revolutions per day: 15.09926066
mean anomaly at epoch: 335.1540°
orbit number at epoch: 78923

The dashed part of the orbit path shows where the satellite is in the earth's shadow,  

DLR